Date String (YYYY-MM-DD hh:mm:ss) UTC,Instrument flags,absolute air pressure of the measurement (hPa),sample flow rate (lpm),inlet stack bypass flow (lpm),air temperature of the measurement (°C),ambient temperature measured by the external sensor (°C),aerosol sample conditioner tube jacket temperature (°C),OPC LED temperature (°C),internal box temperature (°C),relative humidity of the measurement (%),span deviation,mass concentration of particles derived from Lorenz-Mie calculation of OPC scattering (μg/m³),mass concentration of particles derived from Lorenz-Mie calculation of OPC scattering (μg/m³),mass concentration of particles derived from Lorenz-Mie calculation of OPC scattering (μg/m³)
DateTimeUTC,F1_M11,P_M11,Q1_M11,Q2_M11,T1_M11,T2_M11,T3_M11,T4_M11,T5_M11,U1_M11,ZSPAN_M11,X0_M11,X2_M11,X1_M11
2024-03-24 00:00:00,SystemResetWarning,0815.6,4.99,000.00,025.1,024.5,000.0,033.6,027.0,13.5,0000.0,0005.70,0002.46,0001.35
2024-03-24 00:01:00,SystemResetWarning,0815.6,5.00,000.00,025.1,024.5,000.0,033.6,027.0,13.4,0000.0,0005.63,0002.48,0001.36
2024-03-24 00:02:00,SystemResetWarning,0815.6,5.00,000.00,025.2,024.5,000.0,033.6,027.0,13.2,0000.0,0005.68,0002.53,0001.36
2024-03-24 00:03:00,SystemResetWarning,0815.6,5.01,000.00,025.2,024.5,000.0,033.6,027.0,13.2,0000.0,0005.59,0002.51,0001.36
2024-03-24 00:04:00,SystemResetWarning,0815.6,5.01,000.00,025.2,024.5,000.0,033.6,027.1,13.0,0000.0,0005.51,0002.51,0001.36
2024-03-24 00:05:00,SystemResetWarning,0815.6,4.99,000.00,025.2,024.5,000.0,033.6,027.1,13.0,0000.0,0005.58,0002.54,0001.37
2024-03-24 00:06:00,SystemResetWarning,0815.6,4.99,000.00,025.2,024.5,000.0,033.7,027.1,13.0,0000.0,0005.45,0002.50,0001.37
2024-03-24 00:07:00,SystemResetWarning,0815.6,4.99,000.00,025.2,024.5,000.0,033.7,027.1,13.1,0000.0,0005.44,0002.47,0001.37
2024-03-24 00:08:00,SystemResetWarning,0815.6,5.01,000.00,025.2,024.5,000.0,033.7,027.1,13.1,0000.0,0005.59,0002.49,0001.37
2024-03-24 00:09:00,SystemResetWarning,0815.6,5.01,000.00,025.2,024.5,000.0,033.7,027.1,13.0,0000.0,0005.46,0002.47,0001.37
2024-03-24 00:10:00,SystemResetWarning,0815.6,5.00,000.00,025.2,024.6,000.0,033.7,027.1,12.9,0000.0,0005.93,0002.40,0001.35
2024-03-24 00:11:00,SystemResetWarning,0815.6,4.99,000.00,025.2,024.6,000.0,033.7,027.1,12.9,0000.0,0005.92,0002.43,0001.35
2024-03-24 00:12:00,SystemResetWarning,0815.6,5.00,000.00,025.2,024.6,000.0,033.7,027.1,12.7,0000.0,0005.76,0002.40,0001.34
2024-03-24 00:13:00,SystemResetWarning,0815.6,5.00,000.00,025.3,024.6,000.0,033.7,027.1,12.6,0000.0,0006.55,0002.40,0001.34
2024-03-24 00:14:00,SystemResetWarning,0815.6,5.01,000.00,025.3,024.6,000.0,033.7,027.1,12.3,0000.0,0006.96,0002.43,0001.35
2024-03-24 00:15:00,SystemResetWarning,0815.6,5.01,000.00,025.3,024.6,000.0,033.7,027.1,12.0,0000.0,0007.34,0002.42,0001.34
2024-03-24 00:16:00,SystemResetWarning,0815.6,4.99,000.00,025.3,024.6,000.0,033.7,027.1,12.0,0000.0,0007.35,0002.37,0001.32
2024-03-24 00:17:00,SystemResetWarning,0815.6,4.99,000.00,025.3,024.6,000.0,033.7,027.1,12.1,0000.0,0007.46,0002.37,0001.31
2024-03-24 00:18:00,SystemResetWarning,0815.6,5.00,000.00,025.3,024.6,000.0,033.7,027.2,12.0,0000.0,0008.44,0002.46,0001.31
2024-03-24 00:19:00,SystemResetWarning,0815.6,5.00,000.00,025.3,024.6,000.0,033.8,027.2,12.3,0000.0,0009.02,0002.50,0001.30
2024-03-24 00:20:00,SystemResetWarning,0815.6,5.01,000.00,025.3,024.6,000.0,033.8,027.2,12.5,0000.0,0009.26,0002.47,0001.31
2024-03-24 00:21:00,SystemResetWarning,0815.6,5.00,000.00,025.3,024.6,000.0,033.8,027.2,12.6,0000.0,0008.81,0002.52,0001.32
2024-03-24 00:22:00,SystemResetWarning,0815.6,5.00,000.00,025.3,024.6,000.0,033.8,027.2,12.5,0000.0,0008.83,0002.49,0001.33
2024-03-24 00:23:00,SystemResetWarning,0815.5,4.99,000.00,025.3,024.6,000.0,033.8,027.2,12.5,0000.0,0008.83,0002.48,0001.33
2024-03-24 00:24:00,SystemResetWarning,0815.5,5.00,000.00,025.3,024.6,000.0,033.8,027.2,12.7,0000.0,0008.76,0002.47,0001.33
2024-03-24 00:25:00,SystemResetWarning,0815.4,5.01,000.00,025.3,024.7,000.0,033.8,027.2,12.4,0000.0,0008.90,0002.41,0001.31
2024-03-24 00:26:00,SystemResetWarning,0815.4,5.00,000.00,025.3,024.7,000.0,033.8,027.2,12.6,0000.0,0008.56,0002.36,0001.30
2024-03-24 00:27:00,SystemResetWarning,0815.3,5.00,000.00,025.4,024.7,000.0,033.8,027.2,12.5,0000.0,0008.46,0002.38,0001.32
2024-03-24 00:28:00,SystemResetWarning,0815.3,5.00,000.00,025.4,024.7,000.0,033.8,027.2,12.5,0000.0,0008.34,0002.37,0001.32
2024-03-24 00:29:00,SystemResetWarning,0815.3,5.00,000.00,025.4,024.7,000.0,033.8,027.2,12.4,0000.0,0007.40,0002.28,0001.31
2024-03-24 00:30:00,SystemResetWarning,0815.3,4.99,000.00,025.4,024.7,000.0,033.8,027.2,12.0,0000.0,0006.19,0002.17,0001.31
2024-03-24 00:31:00,SystemResetWarning,0815.2,5.00,000.00,025.4,024.7,000.0,033.8,027.2,12.1,0000.0,0006.65,0002.17,0001.30
2024-03-24 00:32:00,SystemResetWarning,0815.2,5.00,000.00,025.4,024.7,000.0,033.9,027.3,12.5,0000.0,0007.00,0002.14,0001.27
2024-03-24 00:33:00,SystemResetWarning,0815.2,5.00,000.00,025.4,024.7,000.0,033.9,027.3,12.4,0000.0,0006.83,0002.11,0001.26
2024-03-24 00:34:00,SystemResetWarning,0815.2,5.00,000.00,025.4,024.7,000.0,033.9,027.3,12.0,0000.0,0006.83,0002.11,0001.24
2024-03-24 00:35:00,SystemResetWarning,0815.1,5.00,000.00,025.4,024.7,000.0,033.9,027.3,12.3,0000.0,0006.51,0002.06,0001.24
2024-03-24 00:36:00,SystemResetWarning,0815.1,5.01,000.00,025.4,024.7,000.0,033.9,027.3,12.0,0000.0,0006.24,0002.05,0001.25
2024-03-24 00:37:00,SystemResetWarning,0815.1,5.00,000.00,025.4,024.7,000.0,033.9,027.3,11.9,0000.0,0006.57,0002.07,0001.26
2024-03-24 00:38:00,SystemResetWarning,0815.1,4.99,000.00,025.4,024.7,000.0,033.9,027.3,12.0,0000.0,0006.80,0002.08,0001.26
2024-03-24 00:39:00,SystemResetWarning,0815.1,5.00,000.00,025.4,024.7,000.0,033.9,027.3,11.9,0000.0,0006.80,0002.06,0001.26
2024-03-24 00:40:00,SystemResetWarning,0815.1,5.00,000.00,025.5,024.8,000.0,033.9,027.3,11.7,0000.0,0006.92,0002.06,0001.26
2024-03-24 00:41:00,SystemResetWarning,0815.1,5.01,000.00,025.5,024.8,000.0,033.9,027.3,11.5,0000.0,0007.22,0002.14,0001.26
2024-03-24 00:42:00,SystemResetWarning,0815.1,5.01,000.00,025.5,024.8,000.0,033.9,027.3,11.1,0000.0,0006.50,0002.15,0001.26
2024-03-24 00:43:00,SystemResetWarning,0815.1,5.00,000.00,025.5,024.8,000.0,033.9,027.3,11.0,0000.0,0005.70,0002.13,0001.29
2024-03-24 00:44:00,SystemResetWarning,0815.1,5.01,000.00,025.5,024.8,000.0,034.0,027.3,11.1,0000.0,0005.72,0002.15,0001.30
2024-03-24 00:45:00,SystemResetWarning,0815.1,5.01,000.00,025.5,024.8,000.0,034.0,027.3,11.3,0000.0,0005.67,0002.15,0001.30
2024-03-24 00:46:00,SystemResetWarning,0815.1,5.00,000.00,025.5,024.8,000.0,034.0,027.3,11.6,0000.0,0005.66,0002.13,0001.28
2024-03-24 00:47:00,SystemResetWarning,0815.1,5.00,000.00,025.5,024.8,000.0,034.0,027.4,11.5,0000.0,0005.15,0002.09,0001.28
2024-03-24 00:48:00,SystemResetWarning,0815.1,5.00,000.00,025.5,024.8,000.0,034.0,027.3,11.5,0000.0,0005.54,0002.10,0001.27
2024-03-24 00:49:00,SystemResetWarning,0815.1,5.01,000.00,025.5,024.8,000.0,034.0,027.4,11.6,0000.0,0005.32,0002.10,0001.27
2024-03-24 00:50:00,SystemResetWarning,0815.1,5.01,000.00,025.5,024.8,000.0,034.0,027.4,11.3,0000.0,0005.25,0002.14,0001.28
2024-03-24 00:51:00,SystemResetWarning,0815.1,4.99,000.00,025.5,024.8,000.0,034.0,027.4,11.4,0000.0,0005.42,0002.21,0001.29
2024-03-24 00:52:00,SystemResetWarning,0815.1,4.99,000.00,025.5,024.8,000.0,034.0,027.4,11.5,0000.0,0005.30,0002.17,0001.29
2024-03-24 00:53:00,SystemResetWarning,0815.1,5.01,000.00,025.5,024.8,000.0,034.0,027.4,11.6,0000.0,0005.66,0002.20,0001.31
2024-03-24 00:54:00,SystemResetWarning,0815.1,5.01,000.00,025.5,024.8,000.0,034.0,027.4,11.2,0000.0,0006.88,0002.24,0001.31
2024-03-24 00:55:00,SystemResetWarning,0815.1,5.00,000.00,025.5,024.8,000.0,034.0,027.4,10.9,0000.0,0007.16,0002.30,0001.31
2024-03-24 00:56:00,SystemResetWarning,0815.1,4.98,000.00,025.5,024.8,000.0,034.0,027.4,10.9,0000.0,0007.31,0002.36,0001.33
2024-03-24 00:57:00,SystemResetWarning,0815.1,5.00,000.00,025.5,024.8,000.0,034.0,027.4,10.8,0000.0,0007.45,0002.44,0001.34
2024-03-24 00:58:00,SystemResetWarning,0815.1,5.01,000.00,025.5,024.8,000.0,034.0,027.4,10.8,0000.0,0007.42,0002.52,0001.35
2024-03-24 00:59:00,SystemResetWarning,0815.1,5.00,000.00,025.5,024.8,000.0,034.0,027.4,10.8,0000.0,0006.69,0002.54,0001.35
